DKH1111 ZSSS-ZSAM

Flight info

Callsign DKH1111
Flight time N/A
Altitude 27600
Route NXD71D NXD W131 AKDIM A470 ENVEN ENVEN8X
Aircraft A320/M-SDE3FGHIRWY/LB1

Departure

Time 2026-04-30 10:53
Airport Shanghai Hongqiao International Airport (ZSSS)

Arrival

Time N/A
Airport Xiamen Gaoqi International Airport (ZSAM)
Time Latitude Longitude Altitude Speed Heading
2026-04-30 10:07 31.19915 121.32841 21 ft 0 kts 257°
2026-04-30 10:43 31.19916 121.32850 21 ft 3 kts 257°
2026-04-30 10:43 31.19920 121.32872 21 ft 3 kts 246°
2026-04-30 10:44 31.19932 121.32890 21 ft 3 kts 215°
2026-04-30 10:44 31.19947 121.32898 21 ft 0 kts 186°
2026-04-30 10:44 31.19946 121.32898 21 ft 0 kts 186°
2026-04-30 10:47 31.19943 121.32897 21 ft 2 kts 186°
2026-04-30 10:48 31.19914 121.32897 22 ft 6 kts 174°
2026-04-30 10:48 31.19880 121.32938 23 ft 8 kts 110°
2026-04-30 10:48 31.19835 121.32972 22 ft 8 kts 174°
2026-04-30 10:48 31.19755 121.32976 21 ft 15 kts 178°
2026-04-30 10:49 31.19629 121.32982 21 ft 20 kts 177°
2026-04-30 10:49 31.19490 121.32990 20 ft 20 kts 178°
2026-04-30 10:49 31.19348 121.32998 20 ft 20 kts 178°
2026-04-30 10:49 31.19208 121.33006 21 ft 20 kts 178°
2026-04-30 10:50 31.19064 121.33013 21 ft 21 kts 177°
2026-04-30 10:50 31.18922 121.33020 21 ft 21 kts 178°
2026-04-30 10:50 31.18778 121.33028 22 ft 21 kts 177°
2026-04-30 10:50 31.18633 121.33036 22 ft 21 kts 178°
2026-04-30 10:51 31.18486 121.33044 21 ft 21 kts 176°
2026-04-30 10:51 31.18361 121.33053 21 ft 12 kts 168°
2026-04-30 10:51 31.18339 121.33131 21 ft 11 kts 87°
2026-04-30 10:51 31.18343 121.33224 21 ft 12 kts 87°
2026-04-30 10:52 31.18353 121.33316 20 ft 9 kts 55°
2026-04-30 10:52 31.18409 121.33323 21 ft 13 kts 357°
2026-04-30 10:52 31.18636 121.33310 22 ft 60 kts 357°
2026-04-30 10:52 31.19232 121.33279 20 ft 111 kts 357°
2026-04-30 10:53 31.20153 121.33226 26 ft 153 kts 358°
2026-04-30 10:53 31.21211 121.33189 597 ft 149 kts 356°
2026-04-30 10:53 31.22258 121.33054 1100 ft 154 kts 332°
2026-04-30 10:53 31.22989 121.32157 1668 ft 156 kts 294°
2026-04-30 10:54 31.23498 121.31035 2320 ft 157 kts 298°
2026-04-30 10:54 31.24053 121.29939 2905 ft 164 kts 300°
2026-04-30 10:54 31.24680 121.28728 3155 ft 186 kts 302°
2026-04-30 10:54 31.25412 121.27331 3330 ft 217 kts 303°
2026-04-30 10:55 31.26232 121.25769 4014 ft 230 kts 303°
2026-04-30 10:55 31.27062 121.24191 4748 ft 227 kts 303°
2026-04-30 10:55 31.27678 121.22522 5020 ft 225 kts 278°
2026-04-30 10:55 31.27334 121.20676 5294 ft 251 kts 247°
2026-04-30 10:56 31.26362 121.18816 5726 ft 281 kts 237°
2026-04-30 10:56 31.25171 121.17006 6679 ft 284 kts 234°
2026-04-30 10:56 31.23932 121.15230 7850 ft 280 kts 234°
2026-04-30 10:56 31.22594 121.13585 8905 ft 282 kts 221°
2026-04-30 10:57 31.20850 121.12432 9706 ft 297 kts 203°
2026-04-30 10:57 31.18803 121.11970 10623 ft 302 kts 184°
2026-04-30 10:57 31.16686 121.12065 11486 ft 309 kts 182°
2026-04-30 10:57 31.14475 121.12178 11843 ft 329 kts 184°
2026-04-30 10:58 31.12124 121.11950 11917 ft 350 kts 198°
2026-04-30 10:58 31.09798 121.10996 11875 ft 351 kts 212°
2026-04-30 10:58 31.07831 121.09446 11909 ft 341 kts 226°
2026-04-30 10:58 31.06251 121.07379 11900 ft 336 kts 239°
2026-04-30 10:59 31.05192 121.05031 11885 ft 329 kts 252°
2026-04-30 10:59 31.04522 121.02443 11877 ft 332 kts 256°
2026-04-30 10:59 31.03891 120.99873 11897 ft 329 kts 256°
2026-04-30 10:59 31.03257 120.97305 11888 ft 330 kts 256°
2026-04-30 11:00 31.02622 120.94736 11889 ft 330 kts 256°
2026-04-30 11:00 31.01984 120.92167 11967 ft 329 kts 256°
2026-04-30 11:00 31.01344 120.89599 12456 ft 332 kts 256°
2026-04-30 11:00 31.00694 120.86991 13179 ft 337 kts 256°
2026-04-30 11:01 31.00040 120.84366 14035 ft 337 kts 256°
2026-04-30 11:01 30.99385 120.81739 14886 ft 337 kts 256°
2026-04-30 11:01 30.98732 120.79115 15687 ft 337 kts 256°
2026-04-30 11:01 30.98079 120.76484 16419 ft 338 kts 255°
2026-04-30 11:02 30.97425 120.73877 16976 ft 329 kts 256°
2026-04-30 11:02 30.96768 120.71377 17485 ft 317 kts 254°
2026-04-30 11:02 30.96141 120.68993 17597 ft 298 kts 255°
2026-04-30 11:02 30.95582 120.66751 17615 ft 280 kts 256°
2026-04-30 11:03 30.95067 120.64635 17619 ft 264 kts 256°
2026-04-30 11:03 30.94582 120.62636 17623 ft 249 kts 256°
2026-04-30 11:03 30.94119 120.60749 17623 ft 236 kts 256°
2026-04-30 11:04 30.93250 120.57266 17621 ft 219 kts 257°
2026-04-30 11:04 30.92800 120.55526 17628 ft 230 kts 256°
2026-04-30 11:04 30.92309 120.53698 17635 ft 243 kts 254°
2026-04-30 11:04 30.91451 120.51945 17652 ft 263 kts 232°
2026-04-30 11:05 30.89837 120.50730 17531 ft 296 kts 206°
2026-04-30 11:05 30.87702 120.50557 17232 ft 325 kts 177°
2026-04-30 11:05 30.85605 120.51654 16787 ft 350 kts 148°
2026-04-30 11:05 30.84042 120.53887 16359 ft 366 kts 118°
2026-04-30 11:06 30.83487 120.56753 16124 ft 364 kts 88°
2026-04-30 11:06 30.83956 120.59613 15632 ft 362 kts 67°
2026-04-30 11:06 30.84984 120.62290 15074 ft 361 kts 59°
2026-04-30 11:06 30.86095 120.64876 14785 ft 353 kts 59°
2026-04-30 11:07 30.87182 120.67411 14448 ft 348 kts 59°
2026-04-30 11:07 30.88206 120.69968 13856 ft 352 kts 65°
2026-04-30 11:07 30.89034 120.72697 13063 ft 363 kts 70°
2026-04-30 11:07 30.89711 120.75520 12629 ft 359 kts 73°
2026-04-30 11:08 30.90307 120.78306 12320 ft 351 kts 73°
2026-04-30 11:08 30.90885 120.81038 12010 ft 344 kts 73°
2026-04-30 11:08 30.91467 120.83686 11834 ft 333 kts 72°
2026-04-30 11:08 30.92058 120.86258 11551 ft 326 kts 72°
2026-04-30 11:09 30.92662 120.88787 11170 ft 323 kts 71°
2026-04-30 11:09 30.93275 120.91295 10816 ft 320 kts 71°
2026-04-30 11:09 30.93884 120.93772 10484 ft 316 kts 71°
2026-04-30 11:09 30.94485 120.96221 10152 ft 313 kts 71°
2026-04-30 11:10 30.95079 120.98642 9834 ft 309 kts 71°
2026-04-30 11:10 30.95664 121.01030 9520 ft 305 kts 71°
2026-04-30 11:10 30.96238 121.03390 9193 ft 301 kts 71°
2026-04-30 11:10 30.96801 121.05726 8862 ft 298 kts 71°
2026-04-30 11:11 30.97356 121.08035 8522 ft 294 kts 71°
2026-04-30 11:11 30.97901 121.10291 8177 ft 292 kts 71°
2026-04-30 11:11 30.98448 121.12556 7817 ft 289 kts 71°
2026-04-30 11:11 30.98988 121.14803 7458 ft 287 kts 71°
2026-04-30 11:12 30.99523 121.17032 7114 ft 284 kts 71°
2026-04-30 11:12 31.00046 121.19218 6955 ft 274 kts 71°
2026-04-30 11:12 31.00550 121.21321 6822 ft 264 kts 71°
2026-04-30 11:12 31.01024 121.23320 6688 ft 249 kts 73°
2026-04-30 11:13 31.01205 121.25278 6562 ft 238 kts 84°
2026-04-30 11:13 31.01281 121.27182 6333 ft 233 kts 83°
2026-04-30 11:13 31.01357 121.29061 6035 ft 231 kts 83°
2026-04-30 11:13 31.01433 121.30925 5726 ft 230 kts 83°
2026-04-30 11:14 31.01557 121.32772 5433 ft 225 kts 71°
2026-04-30 11:14 31.02344 121.34198 5136 ft 207 kts 28°
2026-04-30 11:14 31.03704 121.34608 4551 ft 207 kts 355°
2026-04-30 11:14 31.05157 121.34507 3889 ft 208 kts 353°
2026-04-30 11:15 31.06584 121.34369 3281 ft 203 kts 355°
2026-04-30 11:15 31.07990 121.34272 2678 ft 202 kts 355°
2026-04-30 11:15 31.09389 121.34192 2072 ft 201 kts 355°
2026-04-30 11:15 31.10783 121.34115 1561 ft 198 kts 355°
2026-04-30 11:16 31.12107 121.34043 1314 ft 183 kts 355°
2026-04-30 11:16 31.13320 121.33978 1052 ft 167 kts 355°
2026-04-30 11:16 31.14423 121.33919 820 ft 151 kts 355°
2026-04-30 11:16 31.15417 121.33865 623 ft 137 kts 355°
2026-04-30 11:17 31.16367 121.33814 437 ft 137 kts 356°
2026-04-30 11:17 31.17312 121.33764 266 ft 136 kts 356°
2026-04-30 11:17 31.18251 121.33711 89 ft 135 kts 356°
2026-04-30 11:17 31.19161 121.33663 21 ft 116 kts 358°
2026-04-30 11:18 31.19756 121.33631 21 ft 59 kts 357°
2026-04-30 11:18 31.20284 121.33562 20 ft 29 kts 336°
2026-04-30 11:18 31.20445 121.33456 22 ft 24 kts 330°
2026-04-30 11:19 31.20589 121.33395 21 ft 22 kts 356°
2026-04-30 11:19 31.20748 121.33386 21 ft 24 kts 357°
2026-04-30 11:19 31.20915 121.33377 20 ft 24 kts 357°
2026-04-30 11:19 31.21087 121.33369 21 ft 25 kts 357°
2026-04-30 11:20 31.21265 121.33359 20 ft 26 kts 357°
2026-04-30 11:20 31.21447 121.33349 21 ft 26 kts 357°
2026-04-30 11:20 31.21632 121.33339 21 ft 27 kts 357°
2026-04-30 11:20 31.21794 121.33331 21 ft 15 kts 358°
2026-04-30 11:21 31.21851 121.33316 21 ft 13 kts 329°
2026-04-30 11:21 31.21863 121.33220 21 ft 13 kts 256°
2026-04-30 11:21 31.21841 121.33105 22 ft 15 kts 257°
2026-04-30 11:21 31.21814 121.32972 22 ft 18 kts 254°
2026-04-30 11:22 31.21745 121.32846 21 ft 12 kts 204°
2026-04-30 11:22 31.21656 121.32850 22 ft 14 kts 174°
2026-04-30 11:22 31.21544 121.32863 21 ft 18 kts 174°
2026-04-30 11:22 31.21406 121.32879 21 ft 21 kts 174°
2026-04-30 11:23 31.21255 121.32895 21 ft 22 kts 177°
2026-04-30 11:23 31.21151 121.32900 21 ft 23 kts 177°
2026-04-30 11:23 31.20822 121.32917 21 ft 24 kts 178°
2026-04-30 11:24 31.20650 121.32927 22 ft 25 kts 177°
2026-04-30 11:24 31.20474 121.32937 21 ft 26 kts 177°
2026-04-30 11:24 31.20293 121.32946 23 ft 26 kts 177°
2026-04-30 11:25 31.19983 121.32963 21 ft 14 kts 177°
2026-04-30 11:25 31.19932 121.32934 22 ft 8 kts 246°
2026-04-30 11:25 31.19919 121.32868 21 ft 0 kts 258°
2026-04-30 11:26 31.19916 121.32853 21 ft 0 kts 257°
2026-04-30 11:54 38.36453 109.59487 -999 ft 0 kts 65°